CZ-3B DEB, 41119

Orbit data source: Space-Track

CZ-3B DEB, 41119 is space debris in HEO originally from a launch on Mon, 19 Dec 2011 UTC launched from the Xichang Space Center, China (XSC). Debris objects in space refer to the collection of defunct objects orbiting the Earth. Examples of debris include non-operational satellites, rocket bodies, and fragments generated from explosions, collisions, or faulty payload assembly.

Loading next visibility...
Identifier
41119, 2011-077AJ
Orbit
HEO
Country
Flag of CNCN / PRC
Related business
Manufacturer
CALT
Mission
Spacecraft
Bus & Motor
Unknown
Mass
Unknown
Launch date (UTC)
2011-12-19 (14 years ago)
Launch vehicle
Unknown
Launch site
Xichang Space Center, China (XSC)
Object type
Payload
Rocket body
Debris
Shape & HBR
Unknown
Radar Cross Section
Medium (>0.1 m² and <1 m²)

Expand to show TLE details & history
Last TLE update: 20 hours ago

TLE from 20 hours ago
0 CZ-3B DEB
1 41119U 11077AJ  25258.45487350 -.00000180  00000-0  00000-0 0  9990
2 41119  21.8780  50.7859 7292312 161.4354 254.6714  1.69789778 66337
Epoch: 2025-09-15T10:55Z
TLE epoch observation values (Epoch: 2025-09-15T10:55:01.07Z)
Latitude
-0.0001°
Longitude
-107.5969°
Altitude
38,553.991 km
Speed
2.077 km/s
True Right ascension
03h 23m 16s
True Declination
0° 00' 00"
Sunlit
Object was in daylight at epoch
Visualization orbit readout
Latitude
Unknown
Longitude
Unknown
Altitude
Unknown
Speed
Unknown
Apparent Right ascension
Unknown
Apparent Declination
Unknown
Sunlit
N/A
Visualization observer readout
Local Sidereal Time
23:07:08
Azimuth
Unknown
Elevation
Unknown
Doppler factor
Unknown
Orbital elements
Apogee altitude
44,951.454 km
Perigee altitude
1,659.222 km
Semi-major axis
29,683.475 km
Eccentricity
0.72923
Inclination
21.878°
RAAN
50.7859°
Arg. of periapsis
161.4354°
True anomaly
198.6547°
Mean anomaly
254.6714°
Eccentric anomaly
225.08392°
Mean motion
0.4244 °/min
Orbital period
848.26 mins
BSTAR
0
Loading maneuver chart data...
Computing Atmospheric mass density...
Loading historical data...
Loading historical data...
Loading historical data...
Loading historical data...
Loading historical data...
Loading historical data...
Loading historical data...

Documentation

Showing up to 5 results
|